Home   Weather   Woodbridge Green Park   Past weeks
Flag for USA

Past Weather in Woodbridge Green Park, Ohio, USA — Yesterday and Last 2 Weeks

Now
47 °F

Clear.


Feels Like: 46 °F
Forecast: 53 / 34 °F
Wind: 3 mph from South

Location: John Glenn Columbus International Airport

Current Time: Mar 23, 2019 at 9:48:42 pm

Latest Report: Mar 23, 2019 at 8:51 pm


Visibility: 10 mi

Pressure: 30.29 "Hg

Humidity: 29%

Dew Point: 16 °F

Location of Woodbridge Green ParkLocation

Past Weather in Woodbridge Green Park — Graph

°F

Woodbridge Green Park Temperature Yesterday

Maximum temperature yesterday: 45 °F (at 5:51 pm)
Minimum temperature yesterday: 37 °F (at 11:51 pm)
Average temperature yesterday: 40 °F

High & Low Weather Summary for the Past Weeks

 TemperatureHumidityPressure
High74 °F (Mar 14, 2:51 pm)96% (Mar 17, 9:24 pm)30.50 "Hg (Mar 17, 9:24 pm)
Low23 °F (Mar 9, 2:51 am)18% (Mar 23, 5:51 pm)29.59 "Hg (Mar 14, 5:51 pm)
Average41 °F66%30.13 "Hg
* Reported Mar 8 6:51 pm — Mar 23 7:51 pm, Woodbridge Green Park. Weather by CustomWeather, © 2019

Note: Actual official high and low records may vary slightly from our data, if they occured in-between our weather recording intervals... More about our weather records

Advertising

Woodbridge Green Park Weather History for the Previous 24 Hours

Scroll right to see more
 ConditionsComfort  
Time TempWeatherWind HumidityBarometerVisibility
7:51 pm
Sat, Mar 23
49 °FPassing clouds.3 mph23%30.29 "Hg10 mi
6:51 pm51 °FSunny.8 mph22%30.28 "Hg10 mi
5:51 pm53 °FSunny.7 mph18%30.29 "Hg10 mi
4:51 pm51 °FSunny.3 mph23%30.29 "Hg10 mi
3:51 pm50 °FSunny.9 mph26%30.30 "Hg10 mi
2:51 pm49 °FSunny.6 mph27%30.32 "Hg10 mi
1:51 pm46 °FSunny.9 mph34%30.33 "Hg10 mi
12:51 pm43 °FSunny.No wind37%30.33 "Hg10 mi
11:51 am38 °FSunny.5 mph51%30.34 "Hg10 mi
10:51 am36 °FSunny.5 mph57%30.33 "Hg10 mi
9:51 am33 °FSunny.7 mph70%30.32 "Hg10 mi
8:51 am31 °FSunny.3 mph79%30.30 "Hg10 mi
7:51 am26 °FSunny.5 mph84%30.27 "Hg10 mi
6:51 am27 °FClear.6 mph81%30.24 "Hg10 mi
5:51 am29 °FClear.7 mph79%30.23 "Hg10 mi
4:51 am30 °FClear.8 mph79%30.20 "Hg10 mi
3:51 am31 °FClear.8 mph79%30.19 "Hg10 mi
2:51 am32 °FClear.9 mph75%30.18 "Hg10 mi
1:51 am33 °FClear.10 mph75%30.16 "Hg10 mi
12:51 am35 °FClear.12 mph70%30.15 "Hg10 mi
11:51 pm
Fri, Mar 22
37 °FClear.12 mph62%30.13 "Hg10 mi
10:51 pm39 °FPassing clouds.15 mph57%30.11 "Hg10 mi
9:51 pm41 °FOvercast.16 mph51%30.09 "Hg10 mi
Weather by CustomWeather, © 2019

See weather overview